Location: Augirein
(42.9320°N, 0.9181°E)
Time: 16:48:05
(UTC+00:00)

Cosmos 1092 Rocket - Pass Details

Date: 20 June 2021
Orbit: 955 x 994 km, 82.9° (Epoch: 04 August)

Event Time Altitude Azimuth Distance (km) Brightness Sun altitude
Exits shadow 01:11:08 29° 153° (SSE) 1,682 4.9 -21.5°
Maximum altitude 01:14:05 53° 91° (E) 1,168 4.5 -21.4°
Drops below altitude 10° 01:20:01 10° 17° (NNE) 2,696 7.5 -21.0°
Sets 01:22:35 0° 13° (NNE) 3,649 8.5 -20.8°
